Cloud_Cover
100 5 99 100 100 100 84 31 5 100 100 96 100 100 100 100 100 9 63 1 0 5 5 5 5 5 5 5 1 5 0 0 0 0 5 5 19 34 5 67 100 100 100 100
40 100 100 100 100 100 99 69 37 68 100 100 90 82 99 95 7 84 5 26 39 7 5 5 5 12 5 5 5 5 3 0 0 0 0 0 0 4 5 5 4 16 56 99
99 100 100 100 100 100 100 98 84 20 5 5 12 54 21 100 20 97 100 63 57 6 4 5 5 5 5 10 15 34 5 4 0 0 0 0 0 0 0 6 0 0 1 2
35 100 100 100 100 100 100 100 30 92 52 5 2 10 98 72 5 13 94 88 60 5 5 5 5 51 33 60 32 15 71 4 5 4 0 0 0 1 4 6 4 56 52 34
100 85 100 99 100 100 100 100 100 100 100 8 34 7 100 59 2 5 5 100 100 100 94 100 100 100 100 26 41 7 21 5 46 44 29 20 18 26 3 5 5 5 4 36
100 100 100 100 100 100 100 100 100 100 98 10 100 100 98 82 50 9 5 97 93 100 100 100 100 100 100 100 87 56 5 0 1 93 100 87 73 88 86 94 100 86 100 93
100 100 100 100 100 100 100 100 73 36 44 76 100 46 100 100 100 98 96 64 24 90 100 100 100 100 100 100 93 5 5 3 8 79 100 100 100 100 100 99 100 100 100 100
100 100 97 100 100 100 100 82 91 84 95 59 17 100 100 100 100 100 100 58 99 100 100 100 100 100 100 65 5 5 0 2 47 100 100 100 100 100 100 100 100 100 100 100
100 100 100 100 100 100 100 100 100 100 100 99 97 100 100 98 100 100 96 41 100 100 100 100 94 5 5 5 4 4 4 26 95 100 100 100 100 100 100 100 100 100 100 100
100 100 100 100 100 100 100 100 100 100 100 100 100 100 100 100 100 98 68 100 100 76 90 10 5 5 5 4 4 27 85 100 100 100 100 100 100 100 100 100 100 100 98 93
100 100 100 98 100 100 100 100 100 100 100 100 100 100 100 100 74 19 20 32 28 76 36 12 7 5 5 3 4 15 93 100 100 100 100 100 100 100 100 100 100 100 91 99
100 100 100 98 62 100 100 100 100 100 100 100 100 69 100 100 100 96 84 69 79 6 11 21 5 5 5 5 5 16 83 100 100 75 100 100 100 90 69 56 71 20 82 96
100 100 100 100 96 100 100 100 100 100 100 95 89 97 100 100 99 86 100 41 57 91 20 5 10 5 5 5 5 23 60 99 98 100 100 33 6 5 5 5 10 5 50 100
100 100 100 100 100 100 100 100 100 100 100 100 100 100 100 100 100 100 100 100 86 36 65 6 27 8 15 5 12 34 62 100 89 98 95 45 30 92 5 5 5 5 48 99
100 100 100 100 100 100 100 100 100 100 100 100 100 100 100 100 100 100 100 100 95 57 36 80 95 63 5 5 24 55 69 38 93 88 62 8 16 13 5 5 45 54 62 98
100 100 100 100 100 100 100 100 100 100 100 100 100 100 100 100 100 100 100 100 13 8 100 100 99 100 5 42 69 77 79 72 12 5 5 5 5 5 5 43 72 65 90 100
100 99 100 99 100 100 100 100 100 100 100 100 100 100 100 100 100 100 100 44 66 100 100 23 100 91 37 86 96 100 94 90 64 5 5 19 9 16 5 33 93 93 100 100
100 100 100 100 100 100 100 100 100 100 100 100 100 100 100 100 100 100 94 32 100 100 100 61 10 24 44 92 100 100 100 81 18 63 62 86 57 73 56 59 100 100 100 100
100 100 100 100 100 100 100 93 100 100 100 100 100 100 100 100 100 100 93 100 100 100 68 6 5 13 100 98 100 99 96 91 100 96 100 97 34 8 47 99 100 100 100 100
100 76 100 100 100 100 27 100 100 100 62 100 100 100 100 100 81 84 100 100 100 94 74 54 100 100 100 100 100 100 100 100 100 100 100 67 10 5 63 92 100 100 100 100
100 100 100 100 100 100 100 100 100 100 100 100 100 100 56 93 100 100 100 100 100 100 100 100 99 100 100 100 100 100 100 100 100 100 76 53 20 73 100 100 100 100 100 100
100 100 100 100 100 100 100 100 100 100 100 99 100 98 100 100 100 100 100 100 100 100 100 100 95 100 100 100 100 100 100 100 100 74 5 47 49 99 100 100 96 100 100 100
100 100 100 100 100 100 100 100 100 100 100 96 100 100 100 100 100 100 100 100 100 99 100 100 96 100 100 100 100 100 100 100 34 26 75 78 78 99 100 100 100 100 100 100
100 100 100 100 100 100 100 100 100 100 90 81 68 87 48 100 100 100 100 100 100 100 99 94 91 100 100 100 100 100 90 72 26 51 73 77 100 100 100 100 100 100 100 100
100 100 95 98 98 100 71 78 100 99 100 86 83 16 98 100 100 100 100 100 92 94 84 99 100 100 100 100 100 82 91 67 5 65 26 96 100 100 100 100 100 100 100 100
100 100 100 100 99 65 54 88 100 100 52 8 10 53 100 99 100 100 100 100 88 89 100 93 100 100 100 100 100 100 97 57 15 7 72 99 55 69 99 94 100 94 100 100